Time,TemperatureF,DewpointF,PressureIn,WindDirection,WindDirectionDegrees,WindSpeedMPH,WindSpeedGustMPH,Humidity,HourlyPrecipIn,Conditions,Clouds,dailyrainin,SoftwareType,DateUTC
2013-12-07 00:00:00,10.4,1.6,30.52,SSE,162,5.0,6.0,67,0.00,,CLR,0.00,VWS V13.01,2013-12-07 06:00:00,
2013-12-07 00:30:00,10.4,1.6,30.53,SSE,162,5.0,5.0,67,0.00,,CLR,0.00,VWS V13.01,2013-12-07 06:30:00,
2013-12-07 01:00:00,10.4,1.6,30.53,SSE,162,5.0,5.0,67,0.00,,CLR,0.00,VWS V13.01,2013-12-07 07:00:00,
2013-12-07 01:30:00,10.4,1.6,30.54,SSE,162,5.0,5.0,67,0.00,,CLR,0.00,VWS V13.01,2013-12-07 07:30:00,
2013-12-07 02:00:00,10.4,1.6,30.54,SSE,162,5.0,5.0,67,0.00,,CLR,0.00,VWS V13.01,2013-12-07 08:00:00,
2013-12-07 02:30:00,10.4,1.6,30.55,SSE,162,5.0,5.0,67,0.00,,CLR,0.00,VWS V13.01,2013-12-07 08:30:00,
2013-12-07 03:00:00,10.4,1.6,30.56,SSE,162,5.0,5.0,67,0.00,,CLR,0.00,VWS V13.01,2013-12-07 09:00:00,
2013-12-07 03:30:00,10.4,1.6,30.55,SSE,162,5.0,5.0,67,0.00,,CLR,0.00,VWS V13.01,2013-12-07 09:30:00,
2013-12-07 04:00:00,10.4,1.6,30.56,West,268,5.0,5.0,67,0.00,,CLR,0.00,VWS V13.01,2013-12-07 10:00:00,
2013-12-07 04:30:00,10.4,1.6,30.57,West,277,2.0,5.0,67,0.00,,CLR,0.00,VWS V13.01,2013-12-07 10:30:00,
2013-12-07 05:00:00,6.9,-1.7,30.58,WNW,298,1.0,5.0,67,0.00,,CLR,0.00,VWS V13.01,2013-12-07 11:00:00,
2013-12-07 05:30:00,6.5,0.3,30.58,WNW,292,3.0,5.0,75,0.00,,CLR,0.00,VWS V13.01,2013-12-07 11:30:00,
2013-12-07 06:00:00,6.3,0.4,30.59,WNW,288,7.0,7.0,76,0.00,,CLR,0.00,VWS V13.01,2013-12-07 12:00:00,
2013-12-07 06:30:00,5.8,0.2,30.61,WNW,299,0.0,7.0,77,0.00,,CLR,0.00,VWS V13.01,2013-12-07 12:30:00,
2013-12-07 07:00:00,5.4,0.0,30.61,West,281,3.0,6.0,78,0.00,,CLR,0.00,VWS V13.01,2013-12-07 13:00:00,
2013-12-07 07:30:00,5.2,-0.2,30.63,WNW,295,3.0,6.0,78,0.00,,CLR,0.00,VWS V13.01,2013-12-07 13:30:00,
2013-12-07 08:00:00,5.4,0.0,30.63,NW,326,6.0,7.0,78,0.00,,CLR,0.00,VWS V13.01,2013-12-07 14:00:00,
2013-12-07 08:30:00,6.7,1.0,30.65,NW,323,9.0,10.0,77,0.00,,CLR,0.00,VWS V13.01,2013-12-07 14:30:00,
2013-12-07 09:00:00,7.9,1.1,30.65,WNW,298,4.0,9.0,73,0.00,,CLR,0.00,VWS V13.01,2013-12-07 15:00:00,
2013-12-07 09:30:00,9.0,1.2,30.66,WNW,287,1.0,10.0,70,0.00,,CLR,0.00,VWS V13.01,2013-12-07 15:30:00,
2013-12-07 10:00:00,10.2,1.8,30.66,NNW,337,0.0,10.0,68,0.00,,CLR,0.00,VWS V13.01,2013-12-07 16:00:00,
2013-12-07 10:30:00,11.6,2.5,30.67,NNW,330,1.0,7.0,66,0.00,,CLR,0.00,VWS V13.01,2013-12-07 16:30:00,
2013-12-07 11:00:00,13.3,2.7,30.66,West,270,0.0,8.0,62,0.00,,CLR,0.00,VWS V13.01,2013-12-07 17:00:00,
2013-12-07 11:30:00,15.4,3.7,30.65,West,263,0.0,7.0,59,0.00,,CLR,0.00,VWS V13.01,2013-12-07 17:30:00,
2013-12-07 12:00:00,16.1,2.8,30.64,West,278,4.0,8.0,55,0.00,,CLR,0.00,VWS V13.01,2013-12-07 18:00:00,
2013-12-07 12:30:00,17.5,3.3,30.63,WNW,291,5.0,11.0,53,0.00,,CLR,0.00,VWS V13.01,2013-12-07 18:30:00,
2013-12-07 13:00:00,18.6,3.5,30.62,North,0,6.0,11.0,51,0.00,,CLR,0.00,VWS V13.01,2013-12-07 19:00:00,
2013-12-07 13:30:00,18.6,3.1,30.62,NW,316,3.0,10.0,50,0.00,,CLR,0.00,VWS V13.01,2013-12-07 19:30:00,
2013-12-07 14:00:00,18.6,2.6,30.60,WNW,289,6.0,8.0,49,0.00,,CLR,0.00,VWS V13.01,2013-12-07 20:00:00,
2013-12-07 14:30:00,18.9,3.8,30.60,West,277,0.0,10.0,51,0.00,,CLR,0.00,VWS V13.01,2013-12-07 20:30:00,
2013-12-07 15:00:00,19.1,3.5,30.60,West,274,1.0,8.0,50,0.00,,CLR,0.00,VWS V13.01,2013-12-07 21:00:00,
2013-12-07 15:30:00,18.1,2.6,30.61,West,274,5.0,12.0,50,0.00,,CLR,0.00,VWS V13.01,2013-12-07 21:30:00,
2013-12-07 16:00:00,17.5,3.3,30.61,West,268,0.0,10.0,53,0.00,,CLR,0.00,VWS V13.01,2013-12-07 22:00:00,
2013-12-07 16:30:00,16.7,3.0,30.61,West,277,0.0,7.0,54,0.00,,CLR,0.00,VWS V13.01,2013-12-07 22:30:00,
2013-12-07 17:00:00,15.4,2.1,30.60,West,277,0.0,1.0,55,0.00,,CLR,0.00,VWS V13.01,2013-12-07 23:00:00,
2013-12-07 17:30:00,14.4,2.7,30.60,West,277,0.0,2.0,59,0.00,,CLR,0.00,VWS V13.01,2013-12-07 23:30:00,
2013-12-07 18:00:00,12.9,2.0,30.59,West,277,0.0,0.0,61,0.00,,CLR,0.00,VWS V13.01,2013-12-08 00:00:00,
2013-12-07 18:30:00,11.7,2.2,30.59,West,277,0.0,0.0,65,0.00,,CLR,0.00,VWS V13.01,2013-12-08 00:30:00,
2013-12-07 19:00:00,11.1,2.0,30.59,West,277,0.0,0.0,66,0.00,,CLR,0.00,VWS V13.01,2013-12-08 01:00:00,
2013-12-07 19:30:00,10.2,1.8,30.59,West,277,0.0,0.0,68,0.00,,CLR,0.00,VWS V13.01,2013-12-08 01:30:00,
2013-12-07 20:00:00,9.5,1.7,30.58,West,277,0.0,0.0,70,0.00,,CLR,0.00,VWS V13.01,2013-12-08 02:00:00,
2013-12-07 20:30:00,8.8,1.9,30.57,West,277,0.0,0.0,73,0.00,,CLR,0.00,VWS V13.01,2013-12-08 02:30:00,
2013-12-07 21:00:00,8.6,1.7,30.57,West,277,0.0,0.0,73,0.00,,CLR,0.00,VWS V13.01,2013-12-08 03:00:00,
2013-12-07 21:30:00,7.9,1.9,30.57,West,277,0.0,0.0,76,0.00,,CLR,0.00,VWS V13.01,2013-12-08 03:30:00,
2013-12-07 22:00:00,7.4,2.0,30.56,West,277,0.0,0.0,78,0.00,,CLR,0.00,VWS V13.01,2013-12-08 04:00:00,
2013-12-07 22:30:00,7.4,2.3,30.55,West,277,0.0,0.0,79,0.00,,CLR,0.00,VWS V13.01,2013-12-08 04:30:00,
2013-12-07 23:00:00,7.7,2.8,30.57,West,277,0.0,0.0,80,0.00,,CLR,0.00,VWS V13.01,2013-12-08 05:00:00,
2013-12-07 23:30:00,8.3,3.7,30.57,West,277,0.0,0.0,81,0.00,,CLR,0.00,VWS V13.01,2013-12-08 05:30:00,